Flag for U.S.A. Weather past 2 weeks in Wainwright, Alaska, U.S.A.

Now
2 °F

Light snow. Ice fog.


Feels Like: -23 °F
Forecast: -3 / 4 °F
Wind: 29 mph from East

Location: Wainwright Distant Early Warning

Current Time: Mar 31, 2015 at 2:15:08 PM

Latest Report: Mar 31, 2015 at 12:53 PM


Visibility: 0 mi

Pressure: 29.86 "Hg

Humidity: 80%

Dew point: -3 °F

Location of WainwrightLocation

Historic Weather in Wainwright — Graph

°F

Wainwright temperature yesterday

Maximum temperature yesterday: 1 °F (at 5:53 PM)
Minimum temperature yesterday: -8 °F (at 5:53 AM)
Average temperature yesterday: -3 °F

Past Weeks' High & Low Weather Summary

 TemperatureHumidityPressure
High2 °F (Mar 22, 9:53 AM)91% (Mar 28, 1:53 AM)30.34 "Hg (Mar 28, 1:53 AM)
Low-24 °F (Mar 24, 4:53 AM)64% (Mar 28, 10:53 AM)29.58 "Hg (Mar 26, 10:53 AM)
Average-8 °F76%29.97 "Hg
* Reported Mar 16 12:53 PM — Mar 31 12:53 PM, Wainwright, Weather by CustomWeather, © 2015

Note: Actual official high and low records may vary slightly from our data, if they occured in-between our weather recording intervals... More about our weather records

Advertising

Wainwright weather history for previous 24 hours

 ConditionsComfort  
Time TempWeatherWind HumidityBarometerVisibility
12:53 PM
Tue, Mar 31
2 °FLight snow. Ice fog.29 mph80%29.86 "Hg1 mi
11:53 AM1 °FLight snow. Ice fog.31 mph79%29.85 "Hg1 mi
10:53 AM0 °FLight snow. Ice fog.25 mph79%29.85 "Hg1 mi
9:53 AM0 °FLight snow. Ice fog.26 mph79%29.84 "Hg0 mi
8:53 AM-1 °FLight snow. Ice fog.29 mph79%29.83 "Hg0 mi
7:53 AM0 °FLight snow. Low clouds.26 mph79%29.84 "Hg1 mi
6:53 AM-1 °FLight snow. Ice fog.28 mph82%29.83 "Hg1 mi
5:53 AM-1 °FLight snow. Ice fog.32 mph79%29.81 "Hg1 mi
4:53 AM-1 °FLight snow. Overcast.28 mph79%29.82 "Hg1 mi
3:53 AM-2 °FLight snow. Mostly cloudy.30 mph78%29.82 "Hg1 mi
3:00 AM-2 °FLight snow. Mostly cloudy.28 mph78%29.82 "Hg1 mi
1:53 AM-3 °FLow clouds.25 mph78%29.82 "Hg1 mi
12:53 AM-3 °FLow clouds.26 mph78%29.81 "Hg1 mi
11:53 PM
Mon, Mar 30
-3 °FOvercast.26 mph78%29.81 "Hg2 mi
10:53 PM-3 °FLight snow. Overcast.26 mph78%29.81 "Hg1 mi
9:53 PM-2 °FOvercast.23 mph78%29.81 "Hg1 mi
8:53 PM-1 °FOvercast.25 mph79%29.81 "Hg1 mi
7:53 PM0 °FOvercast.26 mph75%29.80 "Hg1 mi
6:53 PM0 °FOvercast.24 mph79%29.81 "Hg1 mi
5:53 PM1 °FOvercast.26 mph75%29.83 "Hg1 mi
4:53 PM0 °FOvercast.26 mph79%29.84 "Hg1 mi
3:53 PM0 °FLight snow. Overcast.30 mph75%29.85 "Hg1 mi
2:53 PM0 °FLight snow. Ice fog.31 mph75%29.85 "Hg1 mi
Weather by CustomWeather, © 2015

See weather overviewHow to use our weather pages